Voltar ao catálogo

QIANFAN-6

AtivoComunicaçõesPO
NORAD 60384·PAYLOAD·🇨🇳 China

Lançado Aug 6, 2024 de Taiyuan Satellite Launch Center

Loading…

Próximas Passagens (próximas 24 horas)

TLE

AtualizadoSource: Space-Track

Época: Sep 14, 2026, 22:56 UTC

1 60384U 24140F   26257.95570216  .00000018  00000-0  91729-5 0  9991
2 60384  88.9670 270.3633 0015089 114.4685 245.8042 13.51024084104791

Acompanhe QIANFAN-6 em tempo real com AllMySat

Download on the App Store